Location: Bathsheba
(13.2167°N, 59.5167°W)
Time: 23:31:52
(UTC+00:00)

SL-24 R/B - Pass Details

Date: 18 September 2020
Orbit: 625 x 1075 km, 98.0° (Epoch: 20 October)

Event Time Altitude Azimuth Distance (km) Brightness Sun altitude
Rises 22:39:05 0° 171° (S) 2,967 7.4 -11.2°
Reaches altitude 10° 22:41:19 10° 172° (S) 2,026 6.6 -11.7°
Maximum altitude 22:45:39 77° 257° (WSW) 645 4.2 -12.7°
Drops below altitude 10° 22:49:56 10° 345° (NNW) 2,000 6.9 -13.8°
Sets 22:52:08 0° 346° (NNW) 2,925 7.8 -14.3°
